{"data":{"norad_id":58831,"intl_designator":"2024-017F","name":"STARLINK-31232","alt_names":[],"object_type":"PAYLOAD","status":"ACTIVE","operator":null,"country":"US","launch_date":"2024-01-24","launch_site_code":"AFWTR","launch_vehicle":null,"mission":null,"orbit_class":"UNKNOWN","rcs_meters":null,"size_class":null,"mass_kg":null,"dimensions":null,"purposes":["comms"],"wikipedia_slug":null,"has_3d_model":false,"image_url":null,"decayed_at":null,"tle_current":{"epoch":"2026-09-20T14:23:51.956160Z","epoch_age_seconds":143977,"freshness":"FRESH","line1":"1 58831U 24017F   26263.59990690 -.00001573  00000+0 -38938-4 0  9997","line2":"2 58831  53.1618  17.1529 0001045  89.8337 270.2784 15.31696342149929","mean_motion":15.31696342,"eccentricity":0.0001045,"inclination_deg":53.1618,"raan_deg":17.1529,"arg_perigee_deg":89.8337,"mean_anomaly_deg":270.2784,"bstar":-3.8938e-5,"rev_number":14992,"period_min":94.013412483556,"perigee_km":470.0351907695,"apogee_km":471.4666083405,"semimajor_km":6848.887899555,"source":"CELESTRAK","updated_at":"2026-09-21T09:00:33.983721Z"}}}